Main page
METAR-TAF:

METAR-TAF

Airports :

Dubai International Airport

Dubai, United Arab Emirates

latitude: 25-15-10N, longitude: 055-21-52E, elevation: 8 m

Current weather observation

The report was made 1 hour and 1 minutes ago, at 09:06 UTC
Wind 10 kt from the North/Northwest
Temperature 31°C
Humidity 38%
Pressure 1015 hPa
Visibility 10 km or more
no clouds below 1500 m and no cumulonimbus

METAR: OMDB 240906Z 34010KT CAVOK 31/15 Q1015 NOSIG

Time: 14:07 (10:07 UTC)

Forecast

The report was made 5 hours and 19 minutes ago, at 04:48 UTC
Forecast valid from 24 at 06 UTC to 25 at 12 UTC
Wind 5 kt from the East/Northeast
Visibility: 8000 m
Becoming
from 24 at 08 UTC to 24 at 10 UTC
Wind 10 kt from the North/Northwest
Becoming
from 24 at 16 UTC to 24 at 18 UTC
Wind 5 kt from the East
Becoming
from 25 at 09 UTC to 25 at 11 UTC
Wind 10 kt from the North/Northwest

TAF: OMDB 240448Z 2406/2512 06005KT 8000 NSC BECMG 2408/2410 33010KT BECMG 2416/2418 08005KT BECMG 2509/2511 34010KT

Weather observations and forecasts of more than 4000 airports (METAR and TAF reports).

The available stations are represented by yellow and red dots on the map.

Hover mouse over dot to see the name of the station.

Then click to see weather observations and forecasts.

To change the map : click on the green buttons with a black cross to zoom in, on the green button with a dash to zoom out, or on the green arrows for adjacent maps.


METAR-TAF: